Find Local Weather

World > North America > United States > Virginia

Harrisonburg, Virginia Regional Weather

Lat: 38.44N, Lon: 78.87W
Wx Zone: VAZ026
Warning FLW WEATHER ALERT - (More Info. Click Here) Warning
Feedback
Expires:201810210100;;492628
ASUS41 KLWX 210010
RWRLWX

REGIONAL WEATHER ROUNDUP
NATIONAL WEATHER SERVICE BALTIMORE MD/WASHINGTON DC
800 PM EDT SAT OCT 20 2018

Note: "FAIR" indicates few or no clouds below 12,000 feet
with no significant weather and/or obstructions to visibility.
 TC=TEMPERATURE CELSIUS

 * =Non NWS site. Station does not report precipitation (e.g. rain,
    snow, etc.), thunder, or fog.


VAZ025>031-210100-
SHENANDOAH VALLEY
  
CITY           SKY/WX    TMP DP  RH WIND       PRES   REMARKS
WINCHESTER*    FAIR      54  37  54 SW3       29.71S                  
FRONT ROYAL*   FAIR      55  36  47 SW5       29.69F                  
LURAY*         MOCLDY    57  36  44 W16G23    29.72S                  
NEW MARKET*    MOCLDY    58  35  43 SW9G17    29.72R                  
STAUNTON*      MOCLDY    54  38  53 SW6       29.77R                  
WAYNESBORO*    FAIR      55  38  51 W6        29.76R                  

$$


SKY/WX - Weather  TMP - Temperature  DP - Dew Point  RH - Relative Humidity
WIND - Wind Direction/Speed PRES - Barometric Pressure